Preview of NWS' New Version of Forecast
This preview is not operational and should not be used for support decisions.

Regional Weather Roundup (RWR)

Issued by National Weather Service (NWS)

                            
000
ASCA42 TJSJ 171610
RWRPR 
PUERTO RICO/U.S. VIRGIN ISLANDS HOURLY WEATHER ROUNDUP
NATIONAL WEATHER SERVICE SAN JUAN PR
1200 PM AST FRI MAY 17 2019

PRZ001>002-007>008-010-171700-
PUERTO RICO
  
CITY           SKY/WX    TMP DP  RH WIND       PRES   REMARKS
SAN JUAN LMM   MOSUNNY   86  73  66 NE17      30.00F HX  93           
AGUADILLA      CLOUDY    82  73  74 NE10      30.03S                  
CEIBA          SUNNY     88  72  58 E12       30.02F HX  94           
$$

VIZ001>002-171700-
U.S. VIRGIN ISLANDS
  
CITY           SKY/WX    TMP DP  RH WIND       PRES   REMARKS
CHARLOTTE AMA    N/A    N/A N/A N/A MISG      30.02S                  
CHRISTIANSTED  MOSUNNY   86  73  66 E12       30.02F HX  93           
$$

HOURLY WEATHER ROUNDUP FOR THE NEWS MEDIA
  
CITY           SKY/WX    TMP DP  RH WIND       PRES   REMARKS
ORLANDO        FAIR      83  56  39 E7        30.07F                  
NEW YORK       PTSUNNY   68  59  73 S10       29.79F                  
NEWARK         PTSUNNY   77  54  44 SW15G22   29.75F                  
CHICAGO        CLOUDY    49  40  71 N12       29.94R                  
HARTFORD       FAIR      69  54  58 SW23G32   29.77F                  
DALLAS         PTSUNNY   78  67  68 SE9       29.88F                  
PHILADELPHIA   PTSUNNY   77  56  48 W14       29.79F                  
LOS ANGELES    MOSUNNY   64  48  56 N7        30.01R                  
WASHINGTON DC  PTSUNNY   72  57  59 VRB7      29.82F